Waarnemingen

Advertentie
Mijn weer
Paharova, Zweden (2184): temperatuur & dauwpunt: 29.07.2020 21:00:00 - 04.08.2020 21:00:00 (CEST)Paharova, Zweden (2184): windsnelheid & windstoten: 29.07.2020 21:00:00 - 04.08.2020 21:00:00 (CEST)Paharova, Zweden (2184): windrichting: 29.07.2020 21:00:00 - 04.08.2020 21:00:00 (CEST)Paharova, Zweden (2184): luchtdruk: 29.07.2020 21:00:00 - 04.08.2020 21:00:00 (CEST)Paharova, Zweden (2184): zicht: 29.07.2020 21:00:00 - 04.08.2020 21:00:00 (CEST)Paharova, Zweden (2184): neerslag: 29.07.2020 21:00:00 - 04.08.2020 21:00:00 (CEST)
Datum & Tijd tt [°C] td [°C] ff [km/u] ff [kn] fx [km/u] fx [kn] dd ppp [hPa] vv [km] rr [mm]
04.08.2020 21:00:00 15,5 10,9 7 4 14 8 Z 1003,4 50 0,0
04.08.2020 20:00:00 15,8 10,6 5 3 16 9 Z 1003,3 49 0,0
04.08.2020 19:00:00 17,6 9,7 6 3 16 8 ZZO 1002,7 47 0,0
04.08.2020 18:00:00 18,1 9,4 5 3 18 10 ZO 1002,4 50 0,0
04.08.2020 17:00:00 18,4 10,0 4 2 16 9 ZZO 1002,2 46 0,0
04.08.2020 16:00:00 18,7 10,5 8 4 18 10 Z 1002,4 37 0,0
04.08.2020 15:00:00 18,5 10,3 5 3 21 11 ZO 1002,3 40 0,0
04.08.2020 14:00:00 17,2 9,9 9 5 20 11 ZZO 1002,6 32 0,0
04.08.2020 13:00:00 18,4 8,6 5 3 16 9 ZZW 1002,1 38 0,0
04.08.2020 12:00:00 17,0 6,8 6 4 14 8 Z 1002,4 46 0,0
04.08.2020 11:00:00 17,1 7,2 6 4 15 8 Z 1002,3 35 0,0
04.08.2020 10:00:00 16,5 9,0 3 1 10 6 ZZW 1002,3 50 0,0
04.08.2020 09:00:00 14,6 9,2 2 1 9 5 Z 1002,5 41 0,0
04.08.2020 08:00:00 14,3 8,7 3 2 7 4 ZZW 1002,5 40 0,0
04.08.2020 07:00:00 13,0 8,7 0 0 11 6 N 1002,7 39 0,0
04.08.2020 06:00:00 10,7 8,5 0 0 5 3 N 1002,7 49 0,0
04.08.2020 05:00:00 9,6 7,2 0 0 6 3 N 1003,1 49 0,0
04.08.2020 04:00:00 8,2 6,5 2 1 3 2 ONO 1003,3 50 0,0
04.08.2020 03:00:00 8,2 6,0 0 0 4 2 N 1003,4 50 0,0
04.08.2020 02:00:00 11,0 6,3 4 2 7 4 Z 1003,1 50 0,0
04.08.2020 01:00:00 10,8 6,2 3 1 7 4 ZZO 1003,1 50 0,0
04.08.2020 00:00:00 11,8 5,9 3 2 7 4 ZZO 1002,9 50 0,0
03.08.2020 23:00:00 11,8 6,3 3 1 7 4 OZO 1002,8 50 0,0
03.08.2020 22:00:00 13,3 6,4 3 2 9 5 ZO 1002,6 50 0,0
03.08.2020 21:00:00 14,4 7,0 5 3 9 5 ZZO 1002,5 50 0,0
03.08.2020 20:00:00 16,2 6,9 3 2 8 5 ZO 1002,4 50 0,0
03.08.2020 19:00:00 17,0 6,8 4 2 12 6 Z 1002,2 47 0,0
03.08.2020 18:00:00 17,8 7,2 5 3 16 8 ZZW 1002,4 50 0,0
03.08.2020 17:00:00 18,8 7,6 5 3 19 10 Z 1002,4 50 0,0
03.08.2020 16:00:00 18,5 6,7 5 3 13 7 ZZO 1002,8 43 0,0
03.08.2020 15:00:00 18,3 6,8 5 3 16 8 ZO 1003,1 32 0,0
03.08.2020 14:00:00 18,2 7,9 5 3 12 6 N 1003,4 41 0,0
03.08.2020 13:00:00 17,1 6,3 4 2 13 7 NNO 1003,9 38 0,0
03.08.2020 12:00:00 16,4 5,4 3 1 12 7 O 1004,2 42 0,0
03.08.2020 11:00:00 15,7 5,6 3 2 11 6 Z 1004,5 40 0,0
03.08.2020 10:00:00 15,5 7,0 3 2 12 7 ZO 1004,9 34 0,0
03.08.2020 09:00:00 15,0 7,5 5 3 14 8 O 1005,5 43 0,0
03.08.2020 08:00:00 14,3 8,3 4 2 10 5 O 1005,9 37 0,0
03.08.2020 07:00:00 12,6 8,5 0 0 8 4 N 1006,4 33 0,0
03.08.2020 06:00:00 9,2 7,1 5 3 9 5 NO 1006,9 32 0,0
03.08.2020 05:00:00 7,7 6,3 5 3 8 4 NO 1007,3 32 0,0
03.08.2020 04:00:00 6,9 6,0 6 3 7 4 NO 1007,8 25 0,0
03.08.2020 03:00:00 6,4 5,4 3 2 9 5 O 1008,1 20 0,0
03.08.2020 02:00:00 7,3 6,1 5 3 8 4 ONO 1008,4 28 0,0
03.08.2020 01:00:00 7,7 6,5 4 2 6 3 ONO 1008,7 24 0,0
03.08.2020 00:00:00 8,1 6,7 3 2 5 3 ONO 1008,8 25 0,0
02.08.2020 23:00:00 10,4 6,9 3 2 7 4 OZO 1008,8 38 0,0
02.08.2020 22:00:00 11,2 7,3 3 2 8 4 O 1008,8 27 0,0
02.08.2020 21:00:00 12,9 7,3 3 2 10 6 O 1008,7 50 0,0
02.08.2020 20:00:00 14,4 7,2 3 2 17 9 OZO 1008,6 50 0,0
02.08.2020 19:00:00 15,4 6,7 7 4 16 9 O 1008,8 50 0,0
02.08.2020 18:00:00 16,1 6,5 8 4 21 11 NNO 1008,8 50 0,0
02.08.2020 17:00:00 16,4 7,1 8 4 22 12 NNO 1009,2 50 0,0
02.08.2020 16:00:00 16,6 7,0 9 5 23 12 NNO 1009,5 48 0,0
02.08.2020 15:00:00 16,0 8,5 7 4 19 10 NO 1010,1 31 0,0
02.08.2020 14:00:00 16,0 9,0 6 4 21 11 NNO 1010,5 36 0,0
02.08.2020 13:00:00 16,1 9,1 6 4 18 10 NO 1010,6 35 0,0
02.08.2020 12:00:00 15,3 10,1 6 3 23 13 NNO 1011,0 37 0,0
02.08.2020 11:00:00 15,0 9,4 9 5 19 10 NNO 1011,4 46 0,0
02.08.2020 10:00:00 14,5 10,1 7 4 23 12 NNO 1011,6 43 0,0
02.08.2020 09:00:00 13,3 9,7 7 4 20 11 NO 1011,7 40 0,0
02.08.2020 08:00:00 13,0 9,1 9 5 19 10 NNO 1011,9 41 0,0
02.08.2020 07:00:00 12,5 9,3 8 4 16 8 NO 1012,1 42 0,0
02.08.2020 06:00:00 11,4 10,1 6 3 12 6 NNO 1012,3 38 0,0
02.08.2020 05:00:00 10,6 9,8 6 3 11 6 NNO 1012,6 31 0,0
02.08.2020 04:00:00 10,1 9,3 4 2 8 5 NNO 1012,9 27 0,0
02.08.2020 03:00:00 10,3 9,5 2 1 8 5 ONO 1013,0 30 0,0
02.08.2020 02:00:00 11,2 9,8 5 3 9 5 NO 1013,0 49 0,0
02.08.2020 01:00:00 11,2 9,8 5 3 11 6 NO 1013,3 50 0,0
02.08.2020 00:00:00 11,7 10,3 5 3 9 5 NNO 1013,2 49 0,0
01.08.2020 23:00:00 12,5 10,7 5 3 8 5 NO 1013,1 50 0,0
01.08.2020 22:00:00 13,9 10,7 3 1 6 3 NO 1013,0 50 0,0
01.08.2020 21:00:00 15,2 10,8 0 0 14 8 N 1013,1 50 0,0
01.08.2020 20:00:00 17,1 12,4 6 3 16 9 O 1013,2 50 0,0
01.08.2020 19:00:00 16,9 12,4 3 2 11 6 NNO 1013,3 50 0,0
01.08.2020 18:00:00 18,0 10,1 5 3 23 13 NO 1013,1 50 0,1
01.08.2020 17:00:00 14,7 11,5 21 11 38 21 N 1013,5 12 0,3
01.08.2020 16:00:00 20,5 11,1 5 3 13 7 ONO 1013,0 39 0,0
01.08.2020 15:00:00 19,4 10,7 6 3 16 9 NNO 1013,3 43 0,0
01.08.2020 14:00:00 19,9 11,1 6 4 15 8 ONO 1013,8 35 0,0
01.08.2020 13:00:00 19,1 12,6 6 3 16 9 NO 1014,3 39 0,0
01.08.2020 12:00:00 18,0 12,2 4 2 16 8 NO 1014,9 37 0,0
01.08.2020 11:00:00 17,2 15,2 0 0 7 4 N 1015,2 31 0,0
01.08.2020 10:00:00 15,4 14,1 3 2 9 5 O 1015,2 35 1,1
01.08.2020 09:00:00 15,9 13,9 2 1 6 4 W 1015,5 29 0,2
01.08.2020 08:00:00 14,7 12,0 0 0 5 3 N 1015,7 41 0,0
01.08.2020 07:00:00 13,2 11,1 0 0 5 3 N 1016,0 43 0,0
01.08.2020 06:00:00 12,0 10,2 0 0 8 4 N 1016,3 50 0,0
01.08.2020 05:00:00 10,7 9,8 0 0 6 3 N 1016,5 33 0,0
01.08.2020 04:00:00 11,7 10,2 0 0 6 4 N 1016,4 40 0,0
01.08.2020 03:00:00 11,2 9,4 0 0 4 2 N 1016,7 42 0,0
01.08.2020 02:00:00 12,1 8,6 3 2 6 4 Z 1016,7 50 0,0
01.08.2020 01:00:00 13,1 9,4 0 0 3 1 N 1016,6 50 0,0
01.08.2020 00:00:00 13,1 9,5 0 0 5 3 N 1016,3 48 0,0
31.07.2020 23:00:00 14,4 9,4 3 2 7 4 Z 1016,2 50 0,0
31.07.2020 22:00:00 15,5 8,9 3 2 5 3 ZZO 1015,8 50 0,0
31.07.2020 21:00:00 16,4 9,3 2 1 6 3 ZO 1015,5 45 0,0
31.07.2020 20:00:00 17,9 9,8 0 0 7 4 N 1015,4 50 0,0
31.07.2020 19:00:00 18,9 9,4 3 2 15 8 NO 1015,2 50 0,0
31.07.2020 18:00:00 19,3 7,4 6 3 16 9 N 1015,2 50 0,0
31.07.2020 17:00:00 19,3 8,6 10 6 18 10 NNO 1015,2 50 0,0
31.07.2020 16:00:00 19,0 8,9 6 3 19 10 NNO 1015,3 49 0,0
31.07.2020 15:00:00 18,7 9,5 8 5 19 11 NNO 1015,4 36 0,0
31.07.2020 14:00:00 18,3 10,4 8 5 22 12 NNO 1015,5 33 0,0
31.07.2020 13:00:00 17,6 9,5 7 4 26 14 N 1015,5 36 0,0
31.07.2020 12:00:00 16,3 8,5 8 4 24 13 N 1015,8 38 0,0
31.07.2020 11:00:00 15,7 9,1 11 6 23 13 N 1015,8 40 0,0
31.07.2020 10:00:00 14,1 8,7 14 7 27 15 NNO 1015,7 41 0,0
31.07.2020 09:00:00 14,5 8,9 7 4 22 12 N 1015,6 40 0,0
31.07.2020 08:00:00 12,9 8,2 12 6 22 12 NNO 1015,5 35 0,0
31.07.2020 07:00:00 12,3 7,8 11 6 23 12 NNO 1015,3 48 0,0
31.07.2020 06:00:00 11,3 7,8 13 7 25 13 NNO 1014,9 47 0,0
31.07.2020 05:00:00 10,8 7,7 13 7 24 13 NNO 1014,5 50 0,0
31.07.2020 04:00:00 10,7 7,8 13 7 25 14 NNO 1014,0 50 0,0
31.07.2020 03:00:00 11,0 8,2 10 6 19 10 NNO 1013,4 50 0,0
31.07.2020 02:00:00 11,8 8,5 9 5 15 8 NNO 1012,7 50 0,0
31.07.2020 01:00:00 12,8 9,4 8 5 14 8 NNO 1012,1 50 0,0
31.07.2020 00:00:00 12,7 10,2 7 4 13 7 NO 1011,5 50 0,0
30.07.2020 23:00:00 14,4 11,9 8 4 15 8 NNO 1011,0 49 0,0
30.07.2020 22:00:00 14,1 13,5 0 0 8 5 N 1010,6 31 0,0
30.07.2020 21:00:00 14,6 12,5 0 0 6 4 N 1010,2 48 0,0
30.07.2020 20:00:00 15,1 11,3 0 0 22 12 N 1009,5 50 0,0
30.07.2020 19:00:00 17,5 13,0 7 4 18 10 N 1008,8 50 0,0
30.07.2020 18:00:00 18,6 12,8 8 5 18 10 N 1008,3 41 0,0
30.07.2020 17:00:00 18,0 13,5 4 2 15 8 O 1007,9 50 0,0
30.07.2020 16:00:00 16,7 14,0 5 3 21 11 NO 1007,8 47 0,9
30.07.2020 15:00:00 16,4 12,4 8 4 18 10 NO 1007,6 18 0,0
30.07.2020 14:00:00 17,6 10,9 8 4 27 15 ONO 1006,9 50 0,0
30.07.2020 13:00:00 18,1 11,6 6 3 30 16 ONO 1006,2 45 0,0
30.07.2020 12:00:00 18,9 11,5 10 6 35 19 NO 1005,7 48 0,0
30.07.2020 11:00:00 18,4 11,0 14 8 35 19 NNO 1005,2 42 0,0
30.07.2020 10:00:00 17,3 10,9 16 9 32 18 NNO 1005,0 46 0,0
30.07.2020 09:00:00 16,6 10,7 18 10 38 20 NNO 1004,9 43 0,0
30.07.2020 08:00:00 16,4 10,9 17 9 32 17 NNO 1005,0 34 0,0
30.07.2020 07:00:00 15,0 11,0 15 8 35 19 NNO 1005,1 39 0,0
30.07.2020 06:00:00 14,0 10,4 11 6 26 14 NNO 1005,4 42 0,0
30.07.2020 05:00:00 12,6 9,6 12 6 24 13 NO 1005,3 49 0,0
30.07.2020 04:00:00 12,5 9,7 10 5 19 10 NNO 1005,7 50 0,0
30.07.2020 03:00:00 12,4 10,5 9 5 16 9 NO 1005,7 48 0,0
30.07.2020 02:00:00 13,1 11,3 6 4 14 8 NO 1005,6 29 0,0
30.07.2020 01:00:00 13,8 12,7 8 4 15 8 NO 1005,6 39 0,0
30.07.2020 00:00:00 14,3 12,9 11 6 19 11 NNO 1005,7 39 0,0
29.07.2020 23:00:00 13,8 13,3 6 3 10 5 N 1006,1 21 0,0
29.07.2020 22:00:00 14,3 13,8 4 2 6 3 N 1006,5 14 0,0
29.07.2020 21:00:00 14,5 14,0 0 0 4 2 N 1006,6 8 0,1

tt = temperatuur
td = dauwpunt
ff = windsnelheid
fx = windstoten
dd = windrichting
ppp = luchtdruk
vv = zicht
rr = neerslag

Weerstations in de omgeving